| time (UTC) | temp F | wind direction | speed knots | gust knots | rain 1hr in | rain 24hr in | rain mn in | humidity % | barometer mb |
| 20260507220539 | 60 | 131 | 0.0 | 3.5 | 0.00 | 0.04 | 0.00 | 47 | 1005.7 |
| 20260507215540 | 61 | 263 | 0.0 | 3.5 | 0.00 | 0.04 | 0.00 | 46 | 1005.7 |
| 20260507215040 | 62 | 198 | 0.0 | 4.3 | 0.00 | 0.04 | 0.00 | 45 | 1005.7 |
| 20260507214539 | 62 | 207 | 0.0 | 4.3 | 0.00 | 0.04 | 0.00 | 43 | 1005.7 |
| 20260507214039 | 63 | 114 | 0.0 | 6.1 | 0.00 | 0.04 | 0.00 | 43 | 1005.7 |
| 20260507213540 | 63 | 144 | 0.0 | 6.1 | 0.00 | 0.04 | 0.00 | 42 | 1005.7 |
| 20260507213039 | 64 | 95 | 0.0 | 1.7 | 0.00 | 0.04 | 0.00 | 42 | 1005.5 |
| 20260507212539 | 64 | 94 | 0.0 | 0.0 | 0.00 | 0.04 | 0.00 | 40 | 1005.5 |
| 20260507212039 | 65 | 94 | 0.0 | 0.0 | 0.00 | 0.04 | 0.00 | 40 | 1005.5 |
| 20260507211539 | 66 | 91 | 0.0 | 0.0 | 0.00 | 0.04 | 0.00 | 39 | 1005.5 |
| 20260507211040 | 66 | 91 | 0.0 | 0.0 | 0.00 | 0.04 | 0.00 | 37 | 1005.5 |
| 20260507210539 | 66 | 91 | 0.0 | 0.0 | 0.00 | 0.04 | 0.00 | 29 | 1005.5 |
| 20260507210039 | 66 | 91 | 0.0 | 0.0 | 0.00 | 0.04 | 0.00 | 30 | 1005.4 |
| 20260507205539 | 66 | 91 | 0.0 | 0.0 | 0.00 | 0.04 | 0.00 | 32 | 1005.5 |
| 20260507205039 | 66 | 91 | 0.0 | 0.0 | 0.00 | 0.04 | 0.00 | 33 | 1005.5 |
| 20260507204540 | 66 | 91 | 0.0 | 0.0 | 0.00 | 0.04 | 0.00 | 31 | 1005.5 |
| 20260507204039 | 66 | 91 | 0.0 | 0.0 | 0.00 | 0.04 | 0.00 | 30 | 1005.6 |
| 20260507203540 | 66 | 91 | 0.0 | 0.0 | 0.00 | 0.04 | 0.00 | 31 | 1005.6 |
| 20260507203040 | 66 | 91 | 0.0 | 1.7 | 0.00 | 0.04 | 0.00 | 30 | 1005.6 |
| 20260507202539 | 65 | 90 | 0.0 | 2.6 | 0.00 | 0.04 | 0.00 | 29 | 1005.6 |
| 20260507202040 | 66 | 90 | 0.9 | 5.2 | 0.00 | 0.04 | 0.00 | 30 | 1005.7 |
| 20260507201539 | 66 | 90 | 0.9 | 7.8 | 0.00 | 0.04 | 0.00 | 29 | 1005.7 |
| 20260507200540 | 66 | 134 | 0.0 | 0.0 | 0.00 | 0.04 | 0.00 | 29 | 1005.7 |
| 20260507195539 | 67 | 108 | 0.0 | 5.2 | 0.00 | 0.04 | 0.00 | 30 | 1005.8 |
| 20260507195040 | 66 | 82 | 0.0 | 5.2 | 0.00 | 0.04 | 0.00 | 29 | 1005.9 |
| 20260507194539 | 66 | 161 | 0.0 | 6.1 | 0.00 | 0.04 | 0.00 | 31 | 1005.9 |
| 20260507194040 | 66 | 169 | 0.0 | 6.1 | 0.00 | 0.04 | 0.00 | 30 | 1006.1 |
| 20260507193539 | 66 | 123 | 0.0 | 2.6 | 0.00 | 0.04 | 0.00 | 32 | 1006.2 |
| 20260507192539 | 67 | 190 | 0.0 | 3.5 | 0.00 | 0.04 | 0.00 | 28 | 1006.3 |
| 20260507192040 | 67 | 122 | 0.0 | 2.6 | 0.00 | 0.04 | 0.00 | 29 | 1006.2 |
| 20260507191539 | 67 | 123 | 0.0 | 3.5 | 0.00 | 0.04 | 0.00 | 29 | 1006.3 |
| 20260507191039 | 67 | 73 | 0.0 | 3.5 | 0.00 | 0.04 | 0.00 | 30 | 1006.4 |
| 20260507190539 | 66 | 103 | 0.0 | 0.9 | 0.00 | 0.04 | 0.00 | 30 | 1006.5 |
| 20260507190039 | 66 | 103 | 0.0 | 0.0 | 0.00 | 0.04 | 0.00 | 31 | 1006.5 |
| 20260507185539 | 65 | 103 | 0.0 | 3.5 | 0.00 | 0.04 | 0.00 | 33 | 1006.6 |
| 20260507185039 | 65 | 103 | 0.0 | 3.5 | 0.00 | 0.04 | 0.00 | 30 | 1006.8 |
| 20260507184539 | 65 | 56 | 0.0 | 1.7 | 0.00 | 0.04 | 0.00 | 30 | 1006.8 |
| 20260507183040 | 64 | 97 | 0.0 | 2.6 | 0.00 | 0.04 | 0.00 | 31 | 1006.8 |
| 20260507182539 | 64 | 97 | 0.0 | 2.6 | 0.00 | 0.04 | 0.00 | 30 | 1006.8 |
| 20260507182040 | 64 | 79 | 0.0 | 4.3 | 0.00 | 0.04 | 0.00 | 31 | 1007.0 |
| 20260507181539 | 64 | 49 | 0.0 | 4.3 | 0.00 | 0.04 | 0.00 | 30 | 1007.0 |
| 20260507181039 | 65 | 123 | 0.0 | 3.5 | 0.00 | 0.04 | 0.00 | 31 | 1006.9 |
| 20260507180539 | 65 | 306 | 0.0 | 1.7 | 0.00 | 0.04 | 0.00 | 31 | 1006.9 |
| 20260507180039 | 65 | 306 | 0.9 | 4.3 | 0.00 | 0.04 | 0.00 | 32 | 1007.2 |
| 20260507175540 | 65 | 305 | 0.9 | 4.3 | 0.00 | 0.04 | 0.00 | 31 | 1007.1 |
| 20260507175039 | 65 | 42 | 0.0 | 1.7 | 0.00 | 0.04 | 0.00 | 32 | 1007.3 |
| 20260507174539 | 65 | 42 | 0.0 | 2.6 | 0.00 | 0.04 | 0.00 | 32 | 1007.4 |
| 20260507174039 | 65 | 333 | 0.0 | 4.3 | 0.00 | 0.04 | 0.00 | 31 | 1007.6 |
| 20260507173539 | 65 | 333 | 0.0 | 4.3 | 0.00 | 0.04 | 0.00 | 30 | 1007.7 |
| 20260507173039 | 65 | 82 | 0.0 | 1.7 | 0.00 | 0.04 | 0.00 | 32 | 1007.8 |
| 20260507171039 | 64 | 328 | 0.0 | 2.6 | 0.00 | 0.04 | 0.00 | 33 | 1008.1 |
| 20260507170539 | 63 | 122 | 0.0 | 0.0 | 0.00 | 0.04 | 0.00 | 36 | 1008.3 |
| 20260507170039 | 63 | 122 | 0.0 | 0.9 | 0.00 | 0.04 | 0.00 | 33 | 1008.4 |
| 20260507165539 | 63 | 123 | 0.0 | 0.9 | 0.00 | 0.04 | 0.00 | 31 | 1008.5 |
| 20260507164540 | 64 | 115 | 0.0 | 1.7 | 0.00 | 0.04 | 0.00 | 31 | 1008.9 |
| 20260507164039 | 63 | 96 | 0.0 | 0.0 | 0.00 | 0.04 | 0.00 | 33 | 1008.9 |
| 20260507163540 | 63 | 128 | 0.0 | 0.0 | 0.00 | 0.04 | 0.00 | 32 | 1009.0 |
| 20260507163039 | 62 | 117 | 0.0 | 0.0 | 0.00 | 0.04 | 0.00 | 33 | 1009.0 |
| 20260507162540 | 62 | 118 | 0.0 | 0.0 | 0.00 | 0.04 | 0.00 | 33 | 1008.9 |
| 20260507161540 | 62 | 93 | 0.0 | 0.0 | 0.00 | 0.04 | 0.00 | 32 | 1009.0 |
| 20260507161038 | 62 | 111 | 0.0 | 0.0 | 0.00 | 0.04 | 0.00 | 37 | 1009.1 |
| 20260507160539 | 61 | 91 | 0.0 | 0.0 | 0.00 | 0.04 | 0.00 | 35 | 1009.3 |
| 20260507160039 | 60 | 123 | 0.0 | 0.9 | 0.00 | 0.04 | 0.00 | 37 | 1009.4 |
| 20260507155539 | 60 | 89 | 0.9 | 6.1 | 0.00 | 0.04 | 0.00 | 33 | 1009.5 |
| 20260507154540 | 60 | 115 | 0.0 | 3.5 | 0.00 | 0.04 | 0.00 | 32 | 1009.6 |
| 20260507154039 | 60 | 34 | 0.9 | 3.5 | 0.00 | 0.04 | 0.00 | 34 | 1009.7 |
| 20260507153539 | 60 | 360 | 0.9 | 3.5 | 0.00 | 0.04 | 0.00 | 34 | 1009.7 |
| 20260507153039 | 60 | 96 | 0.9 | 7.0 | 0.00 | 0.04 | 0.00 | 34 | 1009.7 |
| 20260507152539 | 60 | 130 | 0.0 | 7.0 | 0.00 | 0.04 | 0.00 | 34 | 1009.7 |
| 20260507151039 | 58 | 67 | 0.0 | 2.6 | 0.00 | 0.04 | 0.00 | 37 | 1010.0 |
| 20260507150040 | 57 | 351 | 0.0 | 3.5 | 0.00 | 0.04 | 0.00 | 38 | 1010.2 |
| 20260507145540 | 56 | 65 | 0.0 | 3.5 | 0.00 | 0.04 | 0.00 | 40 | 1010.3 |
| 20260507144539 | 55 | 174 | 0.9 | 5.2 | 0.00 | 0.04 | 0.00 | 38 | 1010.3 |
| 20260507144039 | 55 | 304 | 0.0 | 5.2 | 0.00 | 0.04 | 0.00 | 40 | 1010.5 |
| 20260507143540 | 55 | 15 | 0.0 | 5.2 | 0.00 | 0.04 | 0.00 | 41 | 1010.5 |
| 20260507143039 | 54 | 46 | 0.0 | 0.0 | 0.00 | 0.04 | 0.00 | 41 | 1010.5 |
| 20260507142538 | 54 | 44 | 0.0 | 0.0 | 0.00 | 0.04 | 0.00 | 40 | 1010.6 |
| 20260507142038 | 54 | 34 | 0.0 | 0.0 | 0.00 | 0.04 | 0.00 | 42 | 1010.5 |
| 20260507141539 | 53 | 34 | 0.0 | 0.0 | 0.00 | 0.04 | 0.00 | 41 | 1010.7 |
| 20260507141039 | 53 | 30 | 0.0 | 0.0 | 0.00 | 0.04 | 0.00 | 43 | 1010.7 |
| 20260507140539 | 53 | 30 | 0.9 | 5.2 | 0.00 | 0.04 | 0.00 | 40 | 1010.8 |
| 20260507135039 | 53 | 121 | 0.0 | 2.6 | 0.00 | 0.04 | 0.00 | 42 | 1011.3 |
| 20260507134539 | 53 | 43 | 0.0 | 2.6 | 0.00 | 0.04 | 0.00 | 40 | 1011.3 |
| 20260507133539 | 53 | 49 | 0.0 | 0.0 | 0.00 | 0.04 | 0.00 | 43 | 1011.4 |
| 20260507133039 | 53 | 22 | 0.0 | 0.0 | 0.00 | 0.04 | 0.00 | 45 | 1011.4 |
| 20260507132540 | 53 | 21 | 0.0 | 0.0 | 0.00 | 0.04 | 0.00 | 46 | 1011.5 |
| 20260507132039 | 53 | 21 | 0.0 | 0.0 | 0.00 | 0.04 | 0.00 | 46 | 1011.2 |
| 20260507131539 | 53 | 20 | 0.0 | 0.0 | 0.00 | 0.04 | 0.00 | 45 | 1011.2 |
| 20260507130539 | 53 | 20 | 0.0 | 4.3 | 0.00 | 0.04 | 0.00 | 48 | 1011.3 |
| 20260507125540 | 53 | 111 | 0.0 | 0.0 | 0.00 | 0.05 | 0.00 | 48 | 1011.3 |
| 20260507124540 | 53 | 113 | 0.0 | 3.5 | 0.00 | 0.05 | 0.00 | 47 | 1011.2 |
| 20260507124038 | 53 | 107 | 0.0 | 0.0 | 0.00 | 0.05 | 0.00 | 49 | 1011.3 |
| 20260507123539 | 53 | 62 | 0.0 | 0.0 | 0.00 | 0.05 | 0.00 | 50 | 1011.2 |
| 20260507123039 | 53 | 63 | 0.0 | 0.0 | 0.00 | 0.05 | 0.00 | 51 | 1011.2 |
| 20260507121539 | 52 | 63 | 0.0 | 0.0 | 0.00 | 0.05 | 0.00 | 53 | 1011.0 |
| 20260507120039 | 52 | 61 | 0.0 | 0.0 | 0.00 | 0.05 | 0.00 | 55 | 1011.0 |
| 20260507115539 | 52 | 61 | 0.0 | 0.0 | 0.00 | 0.09 | 0.00 | 55 | 1011.1 |
| 20260507115040 | 0 | 61 | 0.0 | 0.0 | 0.00 | 0.09 | 0.00 | 1011.0 | |
| 20260507114539 | 0 | 61 | 0.0 | 0.0 | 0.00 | 0.09 | 0.00 | 1011.0 | |
| 20260507114039 | 52 | 61 | 0.0 | 0.0 | 0.00 | 0.09 | 0.00 | 57 | 1010.8 |
| 20260507113539 | 0 | 61 | 0.0 | 0.0 | 0.00 | 0.09 | 0.00 | 1010.8 | |
| 20260507113038 | 52 | 61 | 0.0 | 0.0 | 0.00 | 0.09 | 0.00 | 58 | 1010.9 |
| 20260507112539 | 52 | 61 | 0.0 | 0.0 | 0.00 | 0.09 | 0.00 | 57 | 1010.8 |
| 20260507112040 | 52 | 61 | 0.0 | 0.0 | 0.00 | 0.09 | 0.00 | 59 | 1010.5 |
| 20260507111539 | 52 | 62 | 0.0 | 0.0 | 0.00 | 0.09 | 0.00 | 59 | 1010.4 |
| 20260507111039 | 52 | 62 | 0.0 | 0.0 | 0.00 | 0.09 | 0.00 | 60 | 1010.5 |
| 20260507110039 | 52 | 63 | 0.0 | 0.0 | 0.00 | 0.09 | 0.00 | 59 | 1010.6 |
| 20260507105539 | 52 | 63 | 0.0 | 0.0 | 0.00 | 0.09 | 0.00 | 59 | 1010.5 |
| 20260507105039 | 52 | 63 | 0.0 | 0.0 | 0.00 | 0.09 | 0.00 | 59 | 1010.5 |
| 20260507104538 | 52 | 59 | 0.0 | 0.0 | 0.00 | 0.09 | 0.00 | 60 | 1010.5 |
| 20260507104038 | 52 | 59 | 0.0 | 0.0 | 0.00 | 0.09 | 0.00 | 59 | 1010.4 |
| 20260507103539 | 52 | 59 | 0.0 | 0.0 | 0.00 | 0.09 | 0.00 | 59 | 1010.4 |
| 20260507103039 | 52 | 59 | 0.0 | 0.0 | 0.00 | 0.09 | 0.00 | 59 | 1010.3 |
| 20260507102038 | 52 | 59 | 0.0 | 0.0 | 0.00 | 0.09 | 0.00 | 59 | 1010.2 |
| 20260507101040 | 52 | 59 | 0.0 | 0.0 | 0.00 | 0.09 | 0.00 | 61 | 1010.1 |
| 20260507100539 | 52 | 59 | 0.0 | 0.0 | 0.00 | 0.09 | 0.00 | 60 | 1010.0 |
| 20260507100040 | 52 | 76 | 0.0 | 0.0 | 0.00 | 0.09 | 0.00 | 60 | 1010.0 |
| 20260507095539 | 52 | 76 | 0.0 | 0.0 | 0.00 | 0.09 | 0.00 | 60 | 1009.8 |
| 20260507095039 | 52 | 76 | 0.0 | 0.0 | 0.00 | 0.09 | 0.00 | 62 | 1009.8 |
| 20260507094538 | 52 | 76 | 0.0 | 0.0 | 0.00 | 0.09 | 0.00 | 61 | 1009.8 |
| 20260507094038 | 52 | 76 | 0.0 | 0.0 | 0.00 | 0.09 | 0.00 | 62 | 1009.7 |
| 20260507093538 | 52 | 76 | 0.0 | 0.0 | 0.00 | 0.09 | 0.00 | 64 | 1009.8 |
| 20260507093039 | 52 | 76 | 0.0 | 0.0 | 0.00 | 0.09 | 0.00 | 64 | 1009.7 |
| 20260507092038 | 52 | 76 | 0.0 | 0.0 | 0.00 | 0.09 | 0.00 | 65 | 1009.7 |
| 20260507091538 | 52 | 76 | 0.0 | 0.0 | 0.00 | 0.09 | 0.00 | 65 | 1009.6 |
| 20260507091039 | 52 | 76 | 0.0 | 0.0 | 0.00 | 0.09 | 0.00 | 66 | 1009.5 |
| 20260507090538 | 52 | 76 | 0.0 | 0.0 | 0.00 | 0.09 | 0.00 | 66 | 1009.5 |
| 20260507090040 | 52 | 76 | 0.0 | 0.0 | 0.00 | 0.09 | 0.00 | 66 | 1009.5 |
| 20260507085539 | 52 | 76 | 0.0 | 0.0 | 0.00 | 0.09 | 0.00 | 66 | 1009.5 |
| 20260507085038 | 52 | 76 | 0.0 | 0.0 | 0.00 | 0.09 | 0.00 | 66 | 1009.5 |
| 20260507084539 | 52 | 76 | 0.0 | 0.0 | 0.00 | 0.09 | 0.00 | 64 | 1009.6 |
| 20260507084039 | 52 | 76 | 0.0 | 0.0 | 0.00 | 0.09 | 0.00 | 65 | 1009.7 |
| 20260507083538 | 52 | 76 | 0.0 | 0.0 | 0.00 | 0.09 | 0.00 | 65 | 1009.7 |
| 20260507083038 | 52 | 76 | 0.0 | 0.0 | 0.00 | 0.09 | 0.00 | 65 | 1009.8 |
| 20260507082538 | 52 | 76 | 0.0 | 0.0 | 0.00 | 0.09 | 0.00 | 65 | 1009.7 |
| 20260507081038 | 52 | 76 | 0.0 | 0.0 | 0.00 | 0.09 | 0.00 | 66 | 1009.4 |
| 20260507080538 | 52 | 76 | 0.0 | 0.0 | 0.00 | 0.09 | 0.00 | 66 | 1009.5 |
| 20260507080039 | 52 | 76 | 0.0 | 0.0 | 0.00 | 0.09 | 0.00 | 65 | 1009.3 |
| 20260507075539 | 52 | 76 | 0.0 | 0.0 | 0.00 | 0.09 | 0.00 | 65 | 1009.4 |
| 20260507075039 | 52 | 76 | 0.0 | 0.0 | 0.00 | 0.09 | 0.00 | 65 | 1009.3 |
| 20260507074538 | 52 | 76 | 0.0 | 0.0 | 0.00 | 0.09 | 0.00 | 65 | 1009.4 |
| 20260507074039 | 52 | 76 | 0.0 | 0.0 | 0.00 | 0.09 | 0.00 | 65 | 1009.3 |
| 20260507073538 | 52 | 76 | 0.0 | 0.0 | 0.00 | 0.09 | 0.00 | 65 | 1009.1 |
| 20260507072538 | 52 | 76 | 0.0 | 0.0 | 0.00 | 0.09 | 0.00 | 64 | 1009.1 |
| 20260507072039 | 52 | 76 | 0.0 | 0.0 | 0.00 | 0.09 | 0.00 | 64 | 1009.2 |
| 20260507071540 | 52 | 76 | 0.0 | 0.0 | 0.00 | 0.09 | 0.00 | 65 | 1009.1 |
| 20260507071038 | 52 | 76 | 0.0 | 0.0 | 0.00 | 0.09 | 0.00 | 65 | 1009.1 |
| 20260507070539 | 52 | 76 | 0.0 | 0.0 | 0.00 | 0.09 | 0.00 | 66 | 1009.1 |
| 20260507070038 | 52 | 76 | 0.0 | 0.0 | 0.00 | 0.09 | 0.00 | 65 | 1009.3 |
| 20260507065538 | 53 | 74 | 0.0 | 0.0 | 0.00 | 0.09 | 0.00 | 65 | 1009.2 |
| 20260507065039 | 53 | 36 | 0.0 | 0.0 | 0.00 | 0.09 | 0.00 | 65 | 1009.5 |
| 20260507064539 | 53 | 36 | 0.0 | 0.0 | 0.00 | 0.09 | 0.00 | 65 | 1009.1 |
| 20260507064039 | 53 | 36 | 0.0 | 0.0 | 0.00 | 0.09 | 0.00 | 64 | 1009.3 |
| 20260507063539 | 53 | 36 | 0.0 | 0.0 | 0.00 | 0.09 | 0.00 | 64 | 1009.3 |
| 20260507063038 | 53 | 36 | 0.0 | 0.0 | 0.00 | 0.09 | 0.00 | 63 | 1009.5 |
| 20260507062538 | 53 | 36 | 0.0 | 0.0 | 0.00 | 0.09 | 0.00 | 63 | 1009.5 |
| 20260507062038 | 53 | 36 | 0.0 | 0.0 | 0.00 | 0.09 | 0.00 | 64 | 1009.5 |
| 20260507061539 | 53 | 49 | 0.0 | 0.0 | 0.00 | 0.09 | 0.00 | 64 | 1009.6 |
| 20260507061038 | 54 | 49 | 0.0 | 0.0 | 0.00 | 0.09 | 0.00 | 64 | 1009.8 |
| 20260507060539 | 54 | 49 | 0.0 | 0.0 | 0.00 | 0.09 | 0.00 | 64 | 1009.9 |
| 20260507055539 | 54 | 49 | 0.0 | 0.0 | 0.00 | 0.09 | 0.00 | 63 | 1010.0 |
| 20260507055039 | 54 | 63 | 0.0 | 0.0 | 0.00 | 0.09 | 0.00 | 63 | 1009.7 |
| 20260507054539 | 54 | 63 | 0.0 | 0.0 | 0.00 | 0.09 | 0.00 | 64 | 1009.5 |
| 20260507054038 | 54 | 63 | 0.0 | 0.0 | 0.00 | 0.09 | 0.00 | 62 | 1009.5 |
| 20260507053539 | 55 | 63 | 0.0 | 0.0 | 0.00 | 0.09 | 0.00 | 61 | 1009.5 |
| 20260507053039 | 55 | 63 | 0.0 | 0.0 | 0.00 | 0.09 | 0.00 | 62 | 1009.3 |
| 20260507052539 | 55 | 63 | 0.0 | 0.0 | 0.00 | 0.09 | 0.00 | 61 | 1009.3 |
| 20260507052039 | 55 | 63 | 0.0 | 0.0 | 0.00 | 0.09 | 0.00 | 61 | 1009.3 |
| 20260507051039 | 55 | 63 | 0.0 | 0.0 | 0.00 | 0.09 | 0.00 | 61 | 1009.4 |
| 20260507050538 | 55 | 62 | 0.0 | 1.7 | 0.00 | 0.09 | 0.00 | 61 | 1009.5 |
| 20260507050039 | 55 | 51 | 0.9 | 5.2 | 0.00 | 0.09 | 0.00 | 62 | 1009.6 |
| 20260507045538 | 55 | 61 | 0.9 | 5.2 | 0.00 | 0.09 | 0.00 | 62 | 1009.6 |
| 20260507045039 | 55 | 44 | 0.9 | 7.0 | 0.00 | 0.09 | 0.00 | 62 | 1009.6 |
| 20260507044539 | 55 | 128 | 0.0 | 3.5 | 0.00 | 0.09 | 0.00 | 62 | 1009.3 |
| 20260507043538 | 56 | 107 | 0.0 | 1.7 | 0.00 | 0.09 | 0.00 | 63 | 1008.9 |
| 20260507043039 | 56 | 108 | 0.0 | 5.2 | 0.00 | 0.09 | 0.00 | 64 | 1008.2 |
| 20260507042539 | 56 | 107 | 0.0 | 5.2 | 0.01 | 0.09 | 0.00 | 64 | 1008.2 |
| 20260507042038 | 56 | 55 | 0.0 | 2.6 | 0.01 | 0.09 | 0.00 | 64 | 1008.9 |
| 20260507041538 | 56 | 147 | 0.0 | 0.0 | 0.01 | 0.09 | 0.00 | 65 | 1009.0 |
| 20260507041038 | 56 | 148 | 0.0 | 0.0 | 0.01 | 0.09 | 0.00 | 65 | 1008.8 |
| 20260507040538 | 56 | 148 | 0.0 | 0.0 | 0.01 | 0.09 | 0.00 | 65 | 1008.9 |
| 20260507040038 | 56 | 148 | 0.0 | 0.0 | 0.01 | 0.09 | 0.00 | 65 | 1008.7 |
| 20260507035538 | 56 | 148 | 0.0 | 0.0 | 0.01 | 0.09 | 0.09 | 63 | 1008.2 |
| 20260507035039 | 56 | 148 | 0.0 | 0.0 | 0.01 | 0.09 | 0.09 | 63 | 1008.6 |
| 20260507034538 | 56 | 148 | 0.0 | 0.0 | 0.01 | 0.09 | 0.09 | 63 | 1009.4 |
| 20260507034038 | 57 | 148 | 0.0 | 0.0 | 0.01 | 0.09 | 0.09 | 64 | 1009.3 |
| 20260507033538 | 57 | 148 | 0.0 | 3.5 | 0.01 | 0.09 | 0.09 | 64 | 1009.2 |
| 20260507033038 | 57 | 148 | 0.0 | 3.5 | 0.01 | 0.09 | 0.09 | 62 | 1009.1 |
| 20260507032539 | 57 | 120 | 0.0 | 3.5 | 0.00 | 0.08 | 0.08 | 63 | 1008.7 |
| 20260507032039 | 57 | 119 | 0.0 | 2.6 | 0.00 | 0.08 | 0.08 | 62 | 1008.7 |
| 20260507031538 | 57 | 100 | 0.0 | 0.0 | 0.00 | 0.08 | 0.08 | 64 | 1008.3 |
| 20260507030539 | 57 | 100 | 0.0 | 0.0 | 0.00 | 0.08 | 0.08 | 62 | 1008.4 |
| 20260507030038 | 58 | 100 | 0.0 | 0.0 | 0.00 | 0.08 | 0.08 | 63 | 1008.6 |
| 20260507025538 | 58 | 100 | 0.0 | 0.0 | 0.00 | 0.08 | 0.08 | 62 | 1008.8 |
| 20260507025039 | 58 | 100 | 0.0 | 0.0 | 0.00 | 0.08 | 0.08 | 62 | 1008.9 |
| 20260507024539 | 58 | 100 | 0.0 | 0.0 | 0.00 | 0.08 | 0.08 | 62 | 1008.8 |
| 20260507023039 | 58 | 101 | 0.0 | 0.0 | 0.00 | 0.08 | 0.08 | 62 | 1008.4 |
| 20260507022538 | 58 | 101 | 0.0 | 0.0 | 0.00 | 0.08 | 0.08 | 63 | 1008.2 |
| 20260507022039 | 58 | 101 | 0.0 | 0.0 | 0.00 | 0.08 | 0.08 | 62 | 1007.8 |
| 20260507021539 | 58 | 101 | 0.0 | 2.6 | 0.00 | 0.08 | 0.08 | 62 | 1007.8 |
| 20260507021038 | 58 | 101 | 0.0 | 4.3 | 0.00 | 0.08 | 0.08 | 62 | 1007.9 |
| 20260507020539 | 58 | 65 | 0.0 | 4.3 | 0.00 | 0.08 | 0.08 | 62 | 1007.8 |
| 20260507020039 | 58 | 195 | 0.0 | 0.0 | 0.00 | 0.08 | 0.08 | 62 | 1008.0 |
| 20260507015039 | 58 | 195 | 0.0 | 0.0 | 0.00 | 0.08 | 0.08 | 63 | 1008.0 |
| 20260507014538 | 59 | 195 | 0.0 | 0.0 | 0.00 | 0.08 | 0.08 | 64 | 1007.9 |
| 20260507014039 | 59 | 195 | 0.0 | 0.0 | 0.00 | 0.08 | 0.08 | 63 | 1007.9 |
| 20260507013538 | 59 | 195 | 0.0 | 0.0 | 0.00 | 0.08 | 0.08 | 63 | 1007.9 |
| 20260507013039 | 59 | 195 | 0.0 | 0.0 | 0.00 | 0.08 | 0.08 | 63 | 1007.8 |
| 20260507012038 | 59 | 195 | 0.0 | 0.0 | 0.00 | 0.08 | 0.08 | 62 | 1007.8 |
| 20260507011539 | 59 | 195 | 0.0 | 0.0 | 0.00 | 0.08 | 0.08 | 62 | 1007.7 |
| 20260507010539 | 59 | 195 | 0.0 | 0.0 | 0.00 | 0.08 | 0.08 | 63 | 1007.6 |
| 20260507005039 | 60 | 194 | 0.0 | 1.7 | 0.00 | 0.08 | 0.08 | 64 | 1007.8 |
| 20260507004538 | 60 | 194 | 0.0 | 1.7 | 0.00 | 0.08 | 0.08 | 64 | 1007.5 |
| 20260507003538 | 61 | 192 | 0.0 | 0.0 | 0.00 | 0.08 | 0.08 | 65 | 1007.8 |
| 20260507002538 | 61 | 192 | 0.0 | 0.0 | 0.00 | 0.08 | 0.08 | 64 | 1007.5 |
| 20260507002038 | 61 | 192 | 0.0 | 0.0 | 0.00 | 0.08 | 0.08 | 64 | 1007.6 |
| 20260507001538 | 61 | 192 | 0.0 | 0.0 | 0.00 | 0.08 | 0.08 | 64 | 1007.7 |
| 20260507001038 | 61 | 192 | 0.0 | 0.0 | 0.00 | 0.08 | 0.08 | 64 | 1007.5 |
| 20260507000539 | 62 | 192 | 0.0 | 0.0 | 0.00 | 0.08 | 0.08 | 64 | 1007.5 |
| 20260507000038 | 62 | 192 | 0.0 | 0.0 | 0.00 | 0.08 | 0.08 | 64 | 1007.4 |
| 20260506235539 | 62 | 192 | 0.0 | 0.0 | 0.00 | 0.08 | 0.08 | 64 | 1007.4 |
| 20260506235039 | 63 | 192 | 0.0 | 0.0 | 0.00 | 0.08 | 0.08 | 64 | 1007.4 |
| 20260506234539 | 63 | 192 | 0.0 | 0.0 | 0.00 | 0.08 | 0.08 | 64 | 1007.3 |
| 20260506234039 | 63 | 192 | 0.0 | 0.0 | 0.01 | 0.08 | 0.08 | 65 | 1007.2 |
| 20260506233538 | 63 | 192 | 0.0 | 0.0 | 0.01 | 0.08 | 0.08 | 65 | 1006.8 |
| 20260506233038 | 63 | 192 | 0.0 | 0.0 | 0.01 | 0.08 | 0.08 | 65 | 1006.6 |
| 20260506232039 | 64 | 192 | 0.0 | 0.0 | 0.03 | 0.08 | 0.08 | 64 | 1006.8 |
| 20260506231538 | 64 | 192 | 0.0 | 0.0 | 0.03 | 0.08 | 0.08 | 64 | 1006.4 |
| 20260506230538 | 64 | 192 | 0.0 | 2.6 | 0.03 | 0.08 | 0.08 | 64 | 1006.2 |
| 20260506230038 | 64 | 89 | 0.0 | 2.6 | 0.03 | 0.08 | 0.08 | 65 | 1006.2 |
| 20260506225538 | 65 | 317 | 0.0 | 7.0 | 0.03 | 0.08 | 0.08 | 65 | 1006.0 |
| 20260506225038 | 65 | 318 | 0.0 | 7.0 | 0.03 | 0.08 | 0.08 | 65 | 1005.9 |
| 20260506224538 | 65 | 220 | 0.0 | 0.0 | 0.03 | 0.08 | 0.08 | 65 | 1005.8 |
| 20260506224038 | 65 | 220 | 0.0 | 0.0 | 0.02 | 0.07 | 0.07 | 64 | 1005.9 |
| 20260506223538 | 66 | 220 | 0.0 | 0.0 | 0.02 | 0.07 | 0.07 | 64 | 1005.7 |
| 20260506223038 | 66 | 220 | 0.0 | 0.0 | 0.02 | 0.07 | 0.07 | 65 | 1005.5 |
| 20260506222539 | 67 | 220 | 0.0 | 0.0 | 0.01 | 0.06 | 0.06 | 66 | 1005.5 |
| 20260506221538 | 68 | 220 | 0.0 | 0.0 | 0.00 | 0.05 | 0.05 | 65 | 1005.3 |
| 20260506221038 | 68 | 220 | 0.0 | 0.0 | 0.00 | 0.05 | 0.05 | 65 | 1005.2 |